Weather in Zhdanikha

Russia / Krasnoyarsk Krai     72°08′32″N   103°16′04″E
temp.,
°C
wind,
m/s
gust,
m/s
humid.,
%
clouds,
%
prec.,
mm/h
press.,
hPa
HPBL,
m
19 june, sat
sat1901:00+18w357324 0.0 998149
04:00+18wsw467350 0.0 1000422
07:00+20w566079 0.0 10011071
10:00+16wnw665243 0.0 1004668
13:00+15wnw555286 0.0 1005689
16:00+13nnw3255100 0.0 1005527
19:00+14ne445569 0.1 1004488
22:00+13ne686295 0.0 1003373
20 june, sun
sun2001:00+11ne7107179 0.1 1002235
04:00+12ene57705 0.0 1000160
07:00+17ne336434 0.0 99991
10:00+28sw59300 0.0 9981926
13:00+30ssw711255 0.0 9983100
16:00+31ssw7102032 0.0 9983538
19:00+29s610255 0.0 998337
22:00+26s6123076 0.0 997258
21 june, mon
mon2101:00+23s49419 0.0 998164
04:00+24s612396 0.0 997316
07:00+27ssw810345 0.0 9971090
10:00+21w895897 0.0 1000919
13:00+17w10125556 0.0 10041012
16:00+12w91261100 0.0 1007918
19:00+10w10125998 0.1 10101052
22:00+7nw81064100 0.0 10131072
22 june, tue
tue2201:00+6nnw6759100 0.0 1016892
04:00+6n4560100 0.0 1018796
07:00+7n4551100 0.0 1020894
10:00+9nne444598 0.0 10201068
13:00+11ne443894 0.0 10201160
16:00+10ene4440100 0.0 1021912
19:00+9ene3641100 0.0 1021405
22:00+9ene4743100 0.0 1021451
23 june, wed
wed2301:00+8ne5850100 0.0 1021382
04:00+8ene595199 0.0 1021410
07:00+8ene6950100 0.0 1021398
10:00+11ene794276 0.0 1020518
13:00+12ne6847100 0.0 1019314
16:00+16ene784315 0.0 1017492
19:00+18ene564240 0.0 1015459
22:00+16ne34518 0.0 101482